Data for 10/27/2017

Time Sea-Level Adjusted Pressure Absolute Pressure Temperature Relative Humidity Dew Point   
(mb) (inHg) (mb) (inHg) (C) (F) (%) (C) (F)
00:05 1026 30.3 856 25.28 0.3 32.5 75 -3.6 25.5
00:10 1026 30.3 856 25.28 0.3 32.6 76 -3.4 25.9
00:15 1026 30.3 856 25.28 0.2 32.4 77 -3.4 25.9
00:20 1026 30.3 856 25.28 0.1 32.2 77 -3.3 26
00:25 1026 30.3 856 25.28 0 32 77 -3.5 25.7
00:30 1026 30.3 855 25.25 0.1 32.2 77 -3.5 25.7
00:35 1026 30.3 856 25.28 0.1 32.2 76 -3.5 25.6
00:40 1026 30.3 856 25.28 0.2 32.3 76 -3.6 25.6
00:45 1026 30.3 855 25.25 0.3 32.6 76 -3.5 25.8
00:50 1026 30.3 855 25.25 0.3 32.5 76 -3.4 25.8
00:55 1026 30.3 855 25.25 0.1 32.3 78 -3.3 26
01:00 1026 30.3 855 25.25 0 32.1 78 -3.3 26
01:05 1026 30.3 855 25.25 -0 31.9 78 -3.3 26
01:10 1026 30.3 855 25.25 -0 31.9 79 -3.3 26
01:15 1026 30.3 856 25.28 -0.1 31.8 80 -3.2 26.2
01:20 1026 30.3 856 25.28 -0.2 31.7 80 -3.2 26.2
01:25 1026 30.3 855 25.25 -0.2 31.6 80 -3.2 26.2
01:30 1026 30.3 855 25.25 -0.2 31.6 80 -3.2 26.2
01:35 1026 30.3 855 25.25 -0.2 31.7 79 -3.3 26
01:40 1026 30.3 855 25.25 -0.1 31.8 80 -3.2 26.2
01:45 1026 30.3 855 25.25 -0.2 31.6 80 -3.2 26.2
01:50 1026 30.3 855 25.25 -0.3 31.5 81 -3.2 26.2
01:55 1026 30.3 855 25.25 -0.4 31.4 81 -3.2 26.2
02:00 1026 30.3 855 25.25 -0.2 31.6 80 -3.3 26
02:05 1026 30.3 855 25.25 -0.1 31.8 80 -3.3 26.1
02:10 1026 30.3 855 25.25 -0.3 31.5 80 -3.4 26
02:15 1026 30.3 855 25.25 -0.3 31.4 80 -3.4 25.9
02:20 1026 30.3 855 25.25 -0.4 31.3 80 -3.5 25.8
02:25 1026 30.3 855 25.25 -0.3 31.4 77 -4 24.9
02:30 1026 30.3 855 25.25 -0.5 31.2 78 -3.8 25.1
02:35 1026 30.3 855 25.25 -0.6 31 80 -3.6 25.4
02:40 1026 30.3 855 25.25 -0.5 31.2 80 -3.5 25.6
02:45 1026 30.3 855 25.25 -0.5 31 81 -3.4 25.9
02:50 1026 30.3 855 25.25 -0.5 31.1 82 -3.3 26.1
02:55 1026 30.3 855 25.25 -0.5 31.1 81 -3.3 26
03:00 1026 30.3 855 25.25 -0.6 30.8 81 -3.5 25.7
03:05 1026 30.3 855 25.25 -0.8 30.6 81 -3.5 25.6
03:10 1026 30.3 855 25.25 -0.7 30.7 82 -3.5 25.7
03:15 1026 30.3 855 25.25 -0.8 30.6 82 -3.4 25.8
03:20 1026 30.3 855 25.25 -0.2 31.6 79 -3.5 25.7
03:25 1026 30.3 855 25.25 -0.1 31.9 78 -3.4 25.9
03:30 1026 30.3 855 25.25 0.1 32.1 77 -3.4 25.8
03:35 1026 30.3 855 25.25 0.2 32.4 77 -3.4 25.9
03:40 1026 30.3 855 25.25 0.2 32.3 77 -3.3 26
03:45 1026 30.3 855 25.25 0.2 32.3 78 -3.3 26.1
03:50 1026 30.3 855 25.25 -0 31.9 78 -3.4 25.8
03:55 1026 30.3 855 25.25 -0.3 31.5 80 -3.3 26
04:00 1026 30.3 855 25.25 -0.4 31.2 81 -3.3 26.1
04:05 1026 30.3 855 25.25 -0.7 30.7 82 -3.4 25.9
04:10 1026 30.3 855 25.25 -0.7 30.7 82 -3.4 25.9
04:15 1026 30.3 855 25.25 -0.7 30.7 82 -3.4 25.8
04:20 1026 30.3 855 25.25 -0.9 30.4 82 -3.6 25.6
04:25 1026 30.3 855 25.25 -0.8 30.7 82 -3.5 25.7
04:30 1026 30.3 855 25.25 -0.7 30.7 81 -3.5 25.6
04:35 1026 30.3 855 25.25 -1.2 29.9 83 -3.6 25.4
04:40 1026 30.3 855 25.25 -1.6 29.2 85 -3.8 25.2
04:45 1026 30.3 855 25.25 -1.5 29.3 86 -3.6 25.5
04:50 1026 30.3 855 25.25 -0.7 30.7 78 -4.1 24.7
04:55 1026 30.3 855 25.25 -0.4 31.3 78 -3.8 25.2
05:00 1026 30.3 855 25.25 -1 30.2 81 -4 24.9
05:05 1026 30.3 855 25.25 -1 30.1 80 -4.1 24.7
05:10 1026 30.3 855 25.25 -0.9 30.4 80 -4 24.8
05:15 1026 30.3 855 25.25 -0.9 30.4 80 -3.9 25
05:20 1026 30.3 855 25.25 -1.1 30 81 -3.9 25
05:25 1026 30.3 855 25.25 -1.5 29.3 84 -3.9 24.9
05:30 1026 30.3 855 25.25 -1.6 29.1 84 -3.9 25
05:35 1026 30.3 855 25.25 -1.6 29.1 85 -3.8 25.1
05:40 1026 30.3 855 25.25 -1.5 29.4 85 -3.7 25.4
05:45 1026 30.3 855 25.25 -1.1 30 83 -3.7 25.4
05:50 1026 30.3 855 25.25 -0.9 30.3 81 -3.8 25.2
05:55 1026 30.3 855 25.25 -1 30.2 83 -3.6 25.6
06:00 1026 30.3 855 25.25 -1.1 29.9 83 -3.7 25.4
06:05 1026 30.3 855 25.25 -1.3 29.7 84 -3.6 25.4
06:10 1026 30.3 855 25.25 -1.3 29.7 84 -3.6 25.5
06:15 1026 30.3 855 25.25 -1.3 29.7 83 -3.8 25.2
06:20 1026 30.3 855 25.25 -1.4 29.4 84 -3.8 25.2
06:25 1026 30.3 855 25.25 -1.6 29 85 -3.8 25.1
06:30 1026 30.3 855 25.25 -1.4 29.5 85 -3.6 25.4
06:35 1026 30.3 855 25.25 -1.2 29.9 84 -3.6 25.5
06:40 1026 30.3 855 25.25 -1.1 30.1 83 -3.6 25.5
06:45 1026 30.3 855 25.25 -1 30.1 84 -3.4 25.8
06:50 1026 30.3 855 25.25 -1 30.2 83 -3.6 25.6
06:55 1026 30.3 855 25.25 -1.1 30 83 -3.6 25.5
07:00 1026 30.3 856 25.28 -1.3 29.6 84 -3.7 25.4
07:05 1026 30.3 855 25.25 -1.4 29.5 84 -3.8 25.2
07:10 1026 30.3 855 25.25 -1.3 29.7 85 -3.6 25.6
07:15 1026 30.3 856 25.28 -1.1 30 83 -3.6 25.5
07:20 1026 30.3 856 25.28 -1.4 29.5 84 -3.7 25.3
07:25 1026 30.3 856 25.28 -1.5 29.4 85 -3.6 25.5
07:30 1026 30.3 855 25.25 -1.3 29.7 84 -3.6 25.6
07:35 1026 30.3 855 25.25 -1.2 29.8 84 -3.6 25.6
07:40 1026 30.3 855 25.25 -1.3 29.7 84 -3.7 25.4
07:45 1026 30.3 855 25.25 -1.3 29.7 83 -3.8 25.1
07:50 1026 30.3 855 25.25 -1.1 30 83 -3.7 25.3
07:55 1026 30.3 855 25.25 -1.1 29.9 83 -3.7 25.3
08:00 1026 30.3 855 25.25 -1.4 29.5 84 -3.7 25.4
08:05 1026 30.3 855 25.25 -1.4 29.5 85 -3.6 25.5
08:10 1026 30.3 855 25.25 -1.2 29.9 84 -3.6 25.6
08:15 1026 30.3 856 25.28 -0.9 30.4 83 -3.4 25.9
08:20 1026 30.3 856 25.28 -0.6 30.9 81 -3.4 25.8
08:25 1026 30.3 855 25.25 -0.5 31.2 81 -3.4 25.9
08:30 1026 30.3 855 25.25 -0.3 31.5 79 -3.4 25.8
08:35 1026 30.3 856 25.28 -0.1 31.8 79 -3.3 26.1
08:40 1027 30.33 856 25.28 -0.1 31.8 79 -3.3 26.1
08:45 1027 30.33 856 25.28 -0.1 31.9 79 -3.3 26.1
08:50 1027 30.33 856 25.28 -0.1 31.9 79 -3.3 26
08:55 1027 30.33 856 25.28 -0.2 31.7 79 -3.3 26
09:00 1027 30.33 856 25.28 -0.2 31.6 79 -3.4 25.9
09:05 1027 30.33 856 25.28 -0.1 31.8 79 -3.3 26
09:10 1027 30.33 856 25.28 0 32 78 -3.3 26
09:15 1027 30.33 856 25.28 0.1 32.2 78 -3.3 26.1
09:20 1027 30.33 856 25.28 0.3 32.5 77 -3.2 26.2
09:25 1027 30.33 856 25.28 0.4 32.7 77 -3.2 26.2
09:30 1027 30.33 856 25.28 0.6 33.1 76 -3.2 26.3
09:35 1027 30.33 856 25.28 0.8 33.5 75 -3.1 26.5
09:40 1027 30.33 856 25.28 1 33.8 75 -3 26.7
09:45 1027 30.33 856 25.28 1.1 34 75 -2.8 27
09:50 1027 30.33 856 25.28 1 33.9 76 -2.8 26.9
09:55 1027 30.33 856 25.28 1 33.8 75 -2.9 26.9
10:00 1027 30.33 856 25.28 1.4 34.5 74 -2.7 27.1
10:05 1027 30.33 856 25.28 1.6 34.9 74 -2.6 27.4
10:10 1027 30.33 856 25.28 1.8 35.3 73 -2.5 27.5
10:15 1027 30.33 856 25.28 2 35.7 72 -2.4 27.7
10:20 1027 30.33 856 25.28 2.2 36 71 -2.5 27.6
10:25 1027 30.33 856 25.28 2.7 36.8 69 -2.4 27.8
10:30 1027 30.33 856 25.28 3.1 37.6 68 -2.3 27.9
10:35 1027 30.33 856 25.28 3.4 38.2 66 -2.4 27.7
10:40 1027 30.33 856 25.28 3.7 38.7 67 -1.9 28.7
10:45 1027 30.33 856 25.28 3.4 38.1 68 -2 28.4
10:50 1027 30.33 856 25.28 2.9 37.2 68 -2.3 27.8
10:55 1027 30.33 856 25.28 2.8 37 67 -2.7 27.2
11:00 1027 30.33 856 25.28 2.9 37.3 65 -3 26.5
11:05 1027 30.33 856 25.28 3 37.3 65 -3.1 26.5
11:10 1027 30.33 856 25.28 2.9 37.3 65 -3.1 26.5
11:15 1027 30.33 856 25.28 3.2 37.8 64 -2.9 26.7
11:20 1027 30.33 856 25.28 4 39.2 57 -3.8 25.2
11:25 1027 30.33 856 25.28 4.6 40.2 58 -2.9 26.7
11:30 1027 30.33 856 25.28 5.2 41.4 56 -2.9 26.7
11:35 1027 30.33 856 25.28 5.6 42 54 -2.9 26.8
11:40 1027 30.33 856 25.28 5.9 42.6 53 -2.9 26.7
11:45 1027 30.33 856 25.28 6.5 43.7 50 -3.2 26.2
11:50 1027 30.33 856 25.28 6.8 44.2 51 -2.7 27.2
11:55 1027 30.33 856 25.28 6.9 44.5 50 -2.7 27.2
12:00 1027 30.33 856 25.28 7.3 45.2 50 -2.5 27.6
12:05 1027 30.33 856 25.28 7.5 45.4 49 -2.5 27.6
12:10 1027 30.33 856 25.28 7.6 45.6 48 -2.6 27.3
12:15 1027 30.33 856 25.28 7.7 45.8 47 -2.8 27
12:20 1027 30.33 856 25.28 7.7 45.9 46 -3.1 26.4
12:25 1027 30.33 856 25.28 7.8 46.1 46 -3 26.5
12:30 1027 30.33 856 25.28 8.2 46.7 43 -3.6 25.6
12:35 1027 30.33 856 25.28 8.4 47.1 44 -3.1 26.4
12:40 1027 30.33 856 25.28 8.5 47.2 41 -4 24.9
12:45 1027 30.33 856 25.28 8.5 47.3 42 -3.5 25.7
12:50 1027 30.33 856 25.28 8.7 47.6 43 -3.2 26.2
12:55 1027 30.33 856 25.28 8.7 47.7 42 -3.5 25.7
13:00 1027 30.33 856 25.28 8.7 47.6 42 -3.4 25.8
13:05 1027 30.33 856 25.28 8.6 47.5 40 -4.1 24.5
13:10 1027 30.33 856 25.28 8.5 47.3 41 -4 24.8
13:15 1027 30.33 856 25.28 8.7 47.6 40 -4.3 24.3
13:20 1027 30.33 856 25.28 8.5 47.4 42 -3.7 25.3
13:25 1027 30.33 856 25.28 8.4 47.1 42 -3.9 25
13:30 1027 30.33 856 25.28 8.5 47.3 40 -4.4 24.1
13:35 1027 30.33 856 25.28 8.4 47 41 -4 24.8
13:40 1027 30.33 856 25.28 8.4 47.1 43 -3.6 25.5
13:45 1027 30.33 856 25.28 8 46.4 43 -3.7 25.4
13:50 1027 30.33 856 25.28 7.9 46.3 43 -3.7 25.3
13:55 1026 30.3 856 25.28 8.6 47.5 42 -3.6 25.5
14:00 1026 30.3 856 25.28 9.1 48.5 39 -4 24.8
14:05 1026 30.3 856 25.28 9.3 48.7 38 -4.1 24.5
14:10 1026 30.3 855 25.25 9.4 49 39 -3.8 25.2
14:15 1026 30.3 855 25.25 9.8 49.7 35 -5 23.1
14:20 1026 30.3 855 25.25 10.2 50.4 35 -4.5 23.8
14:25 1026 30.3 855 25.25 10.3 50.6 36 -4.2 24.4
14:30 1026 30.3 855 25.25 9.3 48.8 38 -4.2 24.5
14:35 1026 30.3 855 25.25 9.3 48.7 39 -4 24.8
14:40 1026 30.3 855 25.25 9.4 49 38 -4 24.8
14:45 1026 30.3 855 25.25 9.6 49.2 38 -4.1 24.7
14:50 1026 30.3 855 25.25 10 49.9 38 -3.6 25.4
14:55 1026 30.3 855 25.25 9.9 49.9 38 -3.8 25.2
15:00 1026 30.3 855 25.25 10.1 50.2 38 -3.6 25.6
15:05 1026 30.3 855 25.25 10.2 50.3 36 -4.1 24.7
15:10 1026 30.3 855 25.25 9.6 49.3 39 -3.8 25.2
15:15 1026 30.3 855 25.25 9.3 48.7 38 -4.1 24.6
15:20 1026 30.3 855 25.25 9.1 48.3 39 -4 24.8
15:25 1026 30.3 855 25.25 9.1 48.4 38 -4.4 24.1
15:30 1026 30.3 855 25.25 9 48.3 38 -4.5 23.9
15:35 1026 30.3 855 25.25 8.9 48 39 -4.4 24.1
15:40 1026 30.3 855 25.25 9.2 48.5 38 -4.4 24.1
15:45 1026 30.3 855 25.25 9.1 48.4 38 -4.4 24.1
15:50 1026 30.3 855 25.25 9.5 49.1 38 -4.2 24.4
15:55 1026 30.3 855 25.25 9.4 48.9 37 -4.4 24.1
16:00 1026 30.3 855 25.25 9.1 48.3 38 -4.5 24
16:05 1026 30.3 855 25.25 8.9 48.1 39 -4.4 24
16:10 1026 30.3 855 25.25 9.1 48.4 38 -4.5 24
16:15 1026 30.3 855 25.25 9.3 48.7 38 -4.4 24.2
16:20 1026 30.3 855 25.25 9.2 48.6 38 -4.5 23.9
16:25 1026 30.3 855 25.25 9.2 48.5 37 -4.7 23.6
16:30 1026 30.3 855 25.25 9.1 48.4 38 -4.6 23.8
16:35 1026 30.3 855 25.25 9.3 48.7 36 -4.8 23.3
16:40 1026 30.3 855 25.25 9.5 49.1 36 -4.7 23.5
16:45 1026 30.3 855 25.25 9.5 49.1 37 -4.6 23.7
16:50 1026 30.3 855 25.25 9.7 49.5 36 -4.6 23.6
16:55 1026 30.3 855 25.25 10 49.9 36 -4.5 23.9
17:00 1026 30.3 855 25.25 9.8 49.6 36 -4.4 24.1
17:05 1026 30.3 855 25.25 9.4 48.9 38 -4.2 24.4
17:10 1026 30.3 855 25.25 9.3 48.8 38 -4.2 24.4
17:15 1025 30.27 855 25.25 9.4 48.8 39 -3.8 25.1
17:20 1025 30.27 855 25.25 9.2 48.6 41 -3.3 26.1
17:25 1025 30.27 855 25.25 9.1 48.4 41 -3.5 25.7
17:30 1025 30.27 855 25.25 9 48.2 42 -3.3 26.1
17:35 1025 30.27 855 25.25 9 48.2 42 -3.3 26.1
17:40 1025 30.27 855 25.25 9 48.2 42 -3.1 26.5
17:45 1025 30.27 855 25.25 9.1 48.3 42 -3 26.5
17:50 1025 30.27 854 25.22 9 48.2 42 -3.1 26.5
17:55 1025 30.27 854 25.22 9 48.2 43 -2.8 26.9
18:00 1025 30.27 854 25.22 8.9 48.1 44 -2.5 27.5
18:05 1025 30.27 854 25.22 8.8 47.8 45 -2.4 27.6
18:10 1025 30.27 854 25.22 8.7 47.7 45 -2.4 27.7
18:15 1025 30.27 854 25.22 8.8 47.8 46 -2.1 28.2
18:20 1025 30.27 854 25.22 8.6 47.5 47 -2.2 28.1
18:25 1025 30.27 854 25.22 8.5 47.2 47 -2.2 28.1
18:30 1025 30.27 854 25.22 8.4 47.1 47 -2.1 28.2
18:35 1025 30.27 854 25.22 8.4 47 47 -2.2 28
18:40 1025 30.27 854 25.22 8.3 47 47 -2.4 27.7
18:45 1025 30.27 854 25.22 8.4 47 48 -2 28.4
18:50 1025 30.27 854 25.22 8.3 46.9 49 -1.9 28.6
18:55 1025 30.27 855 25.25 8.2 46.8 49 -1.9 28.6
19:00 1025 30.27 855 25.25 8.3 46.9 49 -1.9 28.6
19:05 1025 30.27 854 25.22 8.3 47 49 -1.8 28.8
19:10 1025 30.27 854 25.22 8.3 46.9 50 -1.5 29.2
19:15 1025 30.27 854 25.22 8.2 46.7 51 -1.3 29.7
19:20 1025 30.27 854 25.22 8.1 46.5 52 -1.3 29.7
19:25 1025 30.27 854 25.22 8.1 46.6 51 -1.4 29.4
19:30 1025 30.27 854 25.22 8.1 46.6 50 -1.5 29.2
19:35 1025 30.27 854 25.22 8.1 46.6 52 -1 30.1
19:40 1025 30.27 854 25.22 8 46.4 53 -0.9 30.3
19:45 1025 30.27 854 25.22 7.9 46.3 52 -1.4 29.4
19:50 1025 30.27 854 25.22 8 46.4 52 -1.2 29.8
19:55 1025 30.27 854 25.22 8.2 46.8 51 -1.4 29.5
20:00 1025 30.27 854 25.22 8.3 46.9 51 -1.1 30
20:05 1025 30.27 854 25.22 8.2 46.8 51 -1.3 29.7
20:10 1025 30.27 854 25.22 8.3 47 54 -0.5 31.1
20:15 1025 30.27 854 25.22 8.1 46.6 57 0.1 32.1
20:20 1025 30.27 854 25.22 7.9 46.2 58 0.2 32.3
20:25 1025 30.27 854 25.22 7.8 46 58 0.2 32.3
20:30 1025 30.27 854 25.22 7.8 46.1 58 0.1 32.2
20:35 1025 30.27 854 25.22 7.8 46.1 59 0.4 32.8
20:40 1025 30.27 854 25.22 7.9 46.1 61 0.8 33.5
20:45 1025 30.27 854 25.22 7.8 46.1 62 1 33.8
20:50 1025 30.27 854 25.22 7.7 45.8 63 1.1 34
20:55 1025 30.27 854 25.22 7.6 45.7 64 1.2 34.2
21:00 1025 30.27 854 25.22 7.7 45.8 63 1.2 34.1
21:05 1025 30.27 854 25.22 7.5 45.6 64 1.1 34
21:10 1025 30.27 854 25.22 7.5 45.4 63 1 33.8
21:15 1025 30.27 854 25.22 7.4 45.4 63 0.8 33.5
21:20 1025 30.27 854 25.22 7.4 45.3 63 0.9 33.6
21:25 1025 30.27 854 25.22 7.4 45.3 64 1 33.7
21:30 1025 30.27 854 25.22 7.3 45.1 64 1 33.8
21:35 1025 30.27 854 25.22 7 44.6 65 1 33.8
21:40 1025 30.27 854 25.22 6.7 44.1 66 1 33.7
21:45 1025 30.27 854 25.22 6.6 43.9 66 0.8 33.4
21:50 1025 30.27 854 25.22 6.6 44 66 0.8 33.5
21:55 1025 30.27 854 25.22 6.5 43.6 67 0.9 33.5
22:00 1025 30.27 854 25.22 6.3 43.3 68 0.9 33.5
22:05 1025 30.27 854 25.22 6.2 43.1 69 0.9 33.7
22:10 1025 30.27 854 25.22 6 42.7 71 1 33.9
22:15 1025 30.27 854 25.22 5.8 42.5 71 0.9 33.6
22:20 1025 30.27 854 25.22 5.6 42.2 71 0.9 33.5
22:25 1024 30.24 854 25.22 5.5 41.9 72 0.9 33.6
22:30 1025 30.27 854 25.22 5.3 41.6 72 0.7 33.3
22:35 1025 30.27 854 25.22 5.2 41.4 72 0.7 33.3
22:40 1025 30.27 854 25.22 5.3 41.6 72 0.6 33.1
22:45 1025 30.27 854 25.22 5.3 41.5 72 0.6 33.1
22:50 1025 30.27 854 25.22 5.2 41.4 72 0.6 33.1
22:55 1025 30.27 854 25.22 5.1 41.3 71 0.4 32.7
23:00 1025 30.27 854 25.22 5.1 41.1 71 0.3 32.6
23:05 1025 30.27 854 25.22 5.3 41.5 70 0.2 32.3
23:10 1025 30.27 854 25.22 5.2 41.4 72 0.6 33
23:15 1025 30.27 854 25.22 4.6 40.4 75 0.6 33
23:20 1025 30.27 854 25.22 4.5 40.1 75 0.4 32.7
23:25 1025 30.27 854 25.22 4.6 40.4 74 0.4 32.8
23:30 1025 30.27 854 25.22 4.7 40.4 74 0.4 32.7
23:35 1025 30.27 854 25.22 4.5 40.1 75 0.5 32.9
23:40 1025 30.27 854 25.22 4.7 40.4 72 0.1 32.2
23:45 1025 30.27 854 25.22 4.7 40.5 72 0.2 32.3
23:50 1025 30.27 854 25.22 4.7 40.5 72 0.1 32.2
23:55 1025 30.27 854 25.22 4.6 40.2 74 0.3 32.5
24:00 1025 30.27 854 25.22 4 39.1 77 0.4 32.7